Regional Weather Roundup
Issued by NWS

Home | Current Version | Previous Version | Graphics & Text | Print | Product List | Glossary On
Versions: 1 2 3 4 5 6 7 8 9 10 11 12 13 14 15 16 17 18 19 20 21 22 23 24 25 26 27 28 29 30 31 32 33 34 35 36 37 38 39 40 41 42 43 44 45 46 47 48 49 50
425
ASUS43 KDTX 230301
RWRMI
MICHIGAN HOURLY REGIONAL WEATHER ROUNDUP
NATIONAL WEATHER SERVICE DETROIT/PONTIAC MI
1100 PM EDT FRI JUL 22 2016

NOTE: "FAIR" INDICATES FEW OR NO CLOUDS BELOW 12,000 FEET WITH NO
SIGNIFICANT WEATHER AND/OR OBSTRUCTION TO VISIBILITY.

MIZ047>049-052>055-059>063-066>070-074>076-081>083-230400-
SOUTHEAST LOWER MICHIGAN

CITY           SKY/WX    TMP DP  RH WIND       PRES   REMARKS
ADRIAN         CLEAR     77  72  84 NW5       29.99R
ALMA           CLEAR     78  72  82 W10       29.98R
ANN ARBOR      CLEAR     73  70  90 SW6       29.97R
BAD AXE        CLEAR     68  62  82 CALM      29.95S
CARO           CLEAR     75  70  85 CALM      29.95R
DETROIT CITY   CLEAR     85  70  60 W6        29.95R
DETROIT        CLEAR     83  70  64 W6        29.97R
FLINT          CLEAR     82  68  62 W6        29.97R
GROSSE ILE     CLEAR     82  70  68 W6        29.95R
HOWELL         CLEAR     77  69  76 W6        29.98S

CITY           SKY/WX    TMP DP  RH WIND       PRES   REMARKS
JACKSON        CLEAR     76  71  85 W3        30.00R
LAMBERTVILLE   CLEAR     78  71  81 CALM      29.98R
LANSING        CLEAR     78  68  71 W6        29.99R
LAPEER         FAIR      81  66  60 W5        29.97R
MASON          CLEAR     77  69  76 W5        29.99S
MONROE         CLEAR     77  73  87 W3        29.96R
MT. CLEMENS    CLEAR     83  69  62 W7        29.92R
PONTIAC        PTCLDY    81  68  64 W9        29.97R
PORT HOPE        N/A     70  68  93 SW5       29.92S
PORT HURON     CLEAR     73  70  88 CALM      29.94R
TRI CITIES     CLEAR     77  72  84 W7        29.96R
MIDLAND        FAIR      69  64  82 CALM      29.95R
TROY           CLEAR     85  67  55 W5        29.98R
SAGINAW HB     CLEAR     79  70  73 W7        29.95S
$$
MIZ043>046-050>051-056>058-064>065-071>073-077>080-230400-
SOUTHWEST LOWER MICHIGAN

CITY           SKY/WX    TMP DP  RH WIND       PRES   REMARKS
BATTLE CREEK   CLEAR     73  71  93 W6        30.01R
BENTON HARBOR  CLEAR     73  69  87 CALM      29.98S
BIG RAPIDS     CLEAR     71  67  89 CALM      29.98S
COLDWATER      CLEAR     75  69  82 W3        30.01R
FREMONT        FAIR      71  71 100 CALM      29.98S
HOLLAND        CLEAR     69  67  93 CALM      29.99S
GRAND RAPIDS   CLEAR     75  68  78 SW6       29.99R
IONIA          FAIR      74  67  76 W3        29.98S
KALAMAZOO      CLEAR     75  68  78 CALM      30.00R
LUDINGTON      CLEAR     71  68  90 SW6       29.96S
MARSHALL       CLEAR     75  71  86 W3        30.00R
MOUNT PLEASANT CLEAR     77  66  70 CALM      29.97R
MUSKEGON       PTCLDY    71  69  93 CALM      29.98R
SOUTH HAVEN    CLEAR     70  68  96 CALM      29.99S
$$
MIZ016>042-230400-
NORTHERN LOWER MICHIGAN

CITY           SKY/WX    TMP DP  RH WIND       PRES   REMARKS
ALPENA         CLEAR     75  59  57 W3        29.94R
BEAVER ISLAND  CLEAR     69  63  82 SW3       29.94F
BELLAIRE       CLEAR     68  65  92 CALM      29.95S
CADILLAC       CLEAR     67  62  84 CALM      29.99S
CHARLEVOIX     CLEAR     72  64  75 W9        29.97S
FRANKFORT      CLEAR     73  67  79 W3        29.95S
GAYLORD        CLEAR     70  62  76 CALM      29.98R
GRAYLING       CLEAR     65  61  85 CALM      29.99R
HARBOR SPRINGS CLEAR     72  62  69 CALM      29.94S
HOUGHTON LAKE  PTCLDY    65  60  84 CALM      29.99R
MANISTEE       CLEAR     70  68  93 CALM      29.95S
OSCODA         CLEAR     69  63  83 CALM      29.93S
PELLSTON       CLEAR     72  61  68 W5        29.94S
ROGERS CITY    CLEAR     75  60  59 W6        29.93S
TRAVERSE CITY  CLEAR     76  62  62 CALM      29.92S
$$
MIZ007>008-015-230400-
EASTERN UPPER MICHIGAN

CITY           SKY/WX    TMP DP  RH WIND       PRES   REMARKS
KINROSS        CLEAR     67  61  81 N3        29.92F
MACKINAC ISLAN CLEAR     69  64  84 W6        29.92F
NEWBERRY       CLEAR     68  62  80 W5        29.92F
S. S. MARIE    CLEAR     65  59  81 SW6       29.91S
$$
MIZ004>006-011>014-085-230400-
CENTRAL UPPER MICHIGAN

CITY           SKY/WX    TMP DP  RH WIND       PRES   REMARKS
MANISTIQUE     CLEAR     64  64  97 CALM      29.92F
ESCANABA       CLEAR     72  55  56 W3        29.92R
MENOMINEE      CLEAR     73  71  93 CALM      29.94S FOG
SAWYER-GWINN   CLEAR     70  57  62 CALM      29.96S
$$
MIZ001>003-009>011-084-230400-
WESTERN UPPER MICHIGAN

CITY           SKY/WX    TMP DP  RH WIND       PRES   REMARKS
IRON MOUNTAIN  CLEAR     69  59  70 CALM      29.96R
HOUGHTON       CLEAR     67  55  65 NW8       29.93S
COPPER HARBOR    N/A     73  58  59 W5        29.90S
IRONWOOD       CLEAR     66  66 100 CALM      29.96R
$$

ABBREVIATIONS USED IN REMARKS
   TC - TEMPERATURE IN CELSIUS
  WCI - WIND CHILL INDEX
   HX - HEAT INDEX
  VSB - VISIBILITY





USA.gov is the U.S. government's official web portal to all federal, state and local government web resources and services.